Yellowstone National Park, WY

6:18 AM MDT on August 30, 2016 (GMT -0600)
Yellowstone

Weather History for KP60 - July, 2013

Change the Weather History Date:

Saturday, July 13, 2013

  Actual Average Record
Temperature  
Mean Temperature 55 °F 56 °F  
Max Temperature 72 °F 72 °F 85 °F (2005)
Min Temperature 38 °F 40 °F 30 °F (2016)
Degree Days  
Heating Degree Days 10 9  
Month to date heating degree days 73 135  
Since 1 June heating degree days 506 628  
Since 1 July heating degree days 73 135  
Cooling Degree Days 0 0  
Month to date cooling degree days 0 0  
Year to date cooling degree days 0 0  
Since 1 June cooling degree days 0 0  
Growing Degree Days 4 (Base 50)    
Moisture  
Dew Point 40 °F    
Average Humidity 60    
Maximum Humidity 92    
Minimum Humidity 28    
Precipitation  
Precipitation 0.00 in 0.04 in 0.26 in (2012)
Month to date precipitation 0.86 0.58  
Year to date precipitation 10.61 11.66  
Sea Level Pressure  
Sea Level Pressure 30.09 in    
Wind  
Wind Speed 2 mph (NNW)    
Max Wind Speed 8 mph    
Max Gust Speed 17 mph    
T = Trace of Precipitation, MM = Missing Value Source: NWS Daily Summary

Daily Weather History Graph

Daily Weather History Graph

Search for Another Location

Airport or City:

Trip Planner

Search our weather history database for the weather conditions in past years. The results will help you decide how hot, cold, wet, or windy it might be!

Date:

Astronomy

Jul. 13, 2013 Rise Set
Actual Time 5:49 AM MDT 9:05 PM MDT
Civil Twilight 5:13 AM MDT 9:40 PM MDT
Nautical Twilight 4:27 AM MDT 10:26 PM MDT
Astronomical Twilight 3:30 AM MDT 11:23 PM MDT
Moon 11:24 AM MDT (7/13) 11:31 PM MDT (7/13)
Length of Visible Light 16h 26m
Length of Day
15h 15m
Waxing Crescent, 26% of the Moon is Illuminated
Jul 13
Waxing Crescent
Jul 15
First Quarter
Jul 22
Full
Jul 29
Last Quarter
Aug 6
New

Hourly Weather History & Observations

Time (MDT) Temp. Windchill Dew Point Humidity Pressure Visibility Wind Dir Wind Speed Gust Speed Precip Events Conditions
12:56 AM 43.0 °F 41.3 °F 37.0 °F 80% 30.06 in - NW 3.5 mph - N/A   Unknown
1:56 AM 41.0 °F 39.0 °F 36.0 °F 82% 30.04 in - NW 3.5 mph - N/A   Unknown
2:56 AM 39.9 °F - 36.0 °F 86% 30.05 in - Calm Calm - N/A   Unknown
3:56 AM 39.0 °F - 36.0 °F 89% 30.05 in - Calm Calm - N/A   Unknown
4:56 AM 37.9 °F - 36.0 °F 93% 30.08 in - Calm Calm - N/A   Unknown
5:56 AM 37.9 °F - 36.0 °F 93% 30.09 in - Calm Calm - N/A   Unknown
6:56 AM 42.1 °F - 37.9 °F 85% 30.06 in - Calm Calm - N/A   Unknown
7:56 AM 53.1 °F - 44.1 °F 71% 30.03 in - Calm Calm - N/A   Unknown
8:56 AM 57.0 °F - 45.0 °F 64% 30.06 in - East 3.5 mph - N/A   Unknown
9:56 AM 61.0 °F - 45.0 °F 56% 30.08 in - Calm Calm - N/A   Unknown
10:56 AM 64.0 °F - 44.1 °F 48% 30.09 in - Variable 6.9 mph - N/A   Unknown
11:56 AM 63.0 °F - 42.1 °F 46% 30.13 in - Variable 3.5 mph - N/A   Unknown
12:56 PM 63.0 °F - 43.0 °F 48% 30.14 in - Variable 4.6 mph - N/A   Unknown
1:56 PM 69.1 °F - 44.1 °F 40% 30.12 in - Variable 4.6 mph - N/A   Unknown
2:56 PM 68.0 °F - 37.9 °F 33% 30.13 in - Variable 3.5 mph - N/A   Unknown
3:56 PM 71.1 °F - 39.9 °F 32% 30.11 in - Variable 5.8 mph - N/A   Unknown
4:56 PM 70.0 °F - 36.0 °F 29% 30.11 in - Variable 4.6 mph - N/A   Unknown
5:56 PM 69.1 °F - 39.0 °F 33% 30.10 in - Calm Calm - N/A   Unknown
6:56 PM 66.9 °F - 39.9 °F 37% 30.11 in - Calm Calm - N/A   Unknown
7:56 PM 64.9 °F - 41.0 °F 42% 30.08 in - Calm Calm - N/A   Unknown
8:56 PM 59.0 °F - 45.0 °F 60% 30.10 in - Calm Calm - N/A   Unknown
9:56 PM 53.1 °F - 44.1 °F 71% 30.12 in - Calm Calm - N/A   Unknown
10:56 PM 50.0 °F - 43.0 °F 77% 30.14 in - Calm Calm - N/A   Unknown
11:56 PM 48.9 °F - 42.1 °F 77% 30.15 in - Calm Calm - N/A   Unknown